Location: Newark
(60.5925°N, 45.5911°E)
Time: 09:50:24
(UTC+00:00)

Envisat - Pass Details

Date: 16 September 2019
Orbit: 764 x 766 km, 98.1° (Epoch: 15 October)

Event Time Altitude Azimuth Distance (km) Brightness Sun altitude
Rises 16:56:31 0° 228° (SW) 3,231 6.5 -12.3°
Reaches altitude 10° 17:00:21 10° 258° (WSW) 2,311 6.2 -12.8°
Maximum altitude 17:02:27 12° 282° (WNW) 2,148 6.5 -13.0°
Drops below altitude 10° 17:04:33 10° 307° (NW) 2,317 7.0 -13.2°
Sets 17:08:25 0° 336° (NNW) 3,250 7.2 -13.6°
